Location: Siratepeler Tepesi
(39.1042°N, 32.0781°E)
Time: 00:37:09
(UTC+00:00)

Terra - Pass Details

Date: 11 April 2026
Orbit: 688 x 691 km, 97.9° (Epoch: 13 May)

Event Time Altitude Azimuth Distance (km) Brightness Sun altitude
Exits shadow 18:55:45 32° 230° (SW) 1,169 3.0 -27.1°
Maximum altitude 18:56:55 38° 262° (W) 1,058 3.0 -27.3°
Drops below altitude 10° 19:01:17 10° 331° (NNW) 2,146 5.2 -28.0°
Sets 19:03:41 0° 339° (NNW) 3,067 6.0 -28.3°
